Location: Auckland
(36.8670°S, 174.7670°E)
Time: 10:04:17
(UTC+12:00)

A-11 Canister half - Pass Details

Date: 30 July 2019
Orbit: 1526 x 1682 km, 47.3° (Epoch: 24 August)

Event Time Altitude Azimuth Distance (km) Brightness Sun altitude
Rises 08:14:59 0° 274° (W) 4,686 11.0 8.7°
Reaches altitude 10° 08:18:10 10° 269° (W) 3,713 10.5 9.2°
Maximum altitude 08:27:13 50° 194° (SSW) 1,914 9.4 10.7°
Drops below altitude 10° 08:36:33 10° 119° (ESE) 3,813 11.5 12.3°
Sets 08:39:52 0° 114° (ESE) 4,820 12.1 12.8°
